Location: New Frontier Mobile Home Park
(32.8448°N, 116.9675°W)
Time: 21:53:10
(UTC+00:00)

OAO 2 Rocket - Pass Details

Date: 14 July 2020
Orbit: 676 x 746 km, 35.0° (Epoch: 05 August)

Event Time Altitude Azimuth Distance (km) Brightness Sun altitude
Rises 05:12:10 0° 281° (W) 3,142 7.5 -23.3°
Reaches altitude 10° 05:14:46 10° 272° (W) 2,228 6.4 -23.6°
Enters shadow 05:19:15 34° 214° (SW) 1,190 4.3 -24.2°
